Location: Arleux
(50.3632°N, 2.8721°E)
Time: 17:07:05
(UTC+00:00)

Cosmos 1844 - Pass Details

Date: 15 December 2019
Orbit: 824 x 866 km, 70.9° (Epoch: 29 January)

Event Time Altitude Azimuth Distance (km) Brightness Sun altitude
Rises 05:57:36 0° 207° (SSW) 3,437 6.8 -15.5°
Reaches altitude 10° 06:00:04 10° 207° (SSW) 2,503 6.1 -15.2°
Maximum altitude 06:05:51 90° 308° (NW) 870 3.7 -14.3°
Drops below altitude 10° 06:11:38 10° 30° (NNE) 2,504 6.3 -13.4°
Sets 06:14:05 0° 30° (NNE) 3,438 7.0 -13.1°
